Sault Ste Marie, MI

2:26 AM EDT on May 27, 2018 (GMT -0400)
Sault Ste Marie Municipal / Sanderson Field

Weather History for KANJ - October, 2010

Change the Weather History Date:

Friday, October 8, 2010

  Actual Average Record
Temperature  
Mean Temperature 57 °F 48 °F  
Max Temperature 70 °F 57 °F 78 °F (2011)
Min Temperature 44 °F 40 °F 25 °F (1979)
Degree Days  
Heating Degree Days 8 17  
Month to date heating degree days 116 122  
Since 1 July heating degree days 451 523  
Cooling Degree Days 0 0  
Month to date cooling degree days 0 0  
Year to date cooling degree days 307 195  
Growing Degree Days 6 (Base 50)    
Moisture  
Dew Point 44 °F    
Average Humidity 66    
Maximum Humidity 89    
Minimum Humidity 42    
Precipitation  
Precipitation 0.00 in 0.13 in 1.08 in (2004)
Month to date precipitation T 1.04  
Year to date precipitation 22.86 24.03  
Snow  
Snow 0.00 in 0.00 in 0.70 in (1993)
Month to date snowfall 0.0 0.1  
Since 1 July snowfall 0.0 0.1  
Snow Depth 0.00 in    
Sea Level Pressure  
Sea Level Pressure 29.88 in    
Wind  
Wind Speed 6 mph (West)    
Max Wind Speed 16 mph    
Max Gust Speed 21 mph    
Visibility 10 miles    
Events      
T = Trace of Precipitation, MM = Missing Value Source: NWS Daily Summary

Daily Weather History Graph

Daily Weather History Graph

Search for Another Location

Airport or City:

Astronomy

Oct. 08, 2010 Rise Set
Actual Time 7:45 AM EDT 7:03 PM EDT
Civil Twilight 7:15 AM EDT 7:33 PM EDT
Nautical Twilight 6:40 AM EDT 8:08 PM EDT
Astronomical Twilight 6:05 AM EDT 8:43 PM EDT
Moon 8:59 AM EDT (10/8) 7:06 PM EDT (10/8)
Length of Visible Light 12h 18m
Length of Day
11h 18m
New Moon, 1% of the Moon is Illuminated
Oct 8
New Moon
Oct 14
First Quarter
Oct 22
Full
Oct 30
Last Quarter
Nov 6
New

Hourly Weather History & Observations

Time (EDT) Temp. Windchill Dew Point Humidity Pressure Visibility Wind Dir Wind Speed Gust Speed Precip Events Conditions
12:55 AM 51.1 °F - 39.9 °F 66% 29.92 in 10.0 mi WSW 6.9 mph - N/A   Clear
1:55 AM 52.0 °F - 37.9 °F 59% 29.91 in 10.0 mi WSW 9.2 mph - N/A   Clear
2:55 AM 50.0 °F - 37.0 °F 61% 29.90 in 10.0 mi WSW 6.9 mph - N/A   Clear
3:55 AM 48.0 °F - 39.0 °F 71% 29.88 in 10.0 mi WSW 3.5 mph - N/A   Clear
4:55 AM 53.1 °F - 41.0 °F 64% 29.87 in 10.0 mi West 8.1 mph - N/A   Clear
5:55 AM 53.1 °F - 41.0 °F 64% 29.86 in 10.0 mi West 5.8 mph - N/A   Clear
6:55 AM 46.0 °F - 42.1 °F 86% 29.87 in 10.0 mi Calm Calm - N/A   Clear
7:55 AM 44.1 °F 42.5 °F 41.0 °F 89% 29.87 in 10.0 mi ENE 3.5 mph - N/A   Clear
8:55 AM 50.0 °F - 42.1 °F 74% 29.86 in 10.0 mi South 3.5 mph - N/A   Clear
9:55 AM 55.9 °F - 45.0 °F 67% 29.86 in 10.0 mi SSW 4.6 mph - N/A   Clear
10:55 AM 64.0 °F - 46.0 °F 52% 29.86 in 10.0 mi West 11.5 mph - N/A   Clear
11:55 AM 66.0 °F - 46.0 °F 48% 29.86 in 10.0 mi West 10.4 mph - N/A   Clear
12:55 PM 68.0 °F - 46.9 °F 47% 29.85 in 10.0 mi West 9.2 mph - N/A   Clear
1:55 PM 69.1 °F - 46.0 °F 44% 29.84 in 10.0 mi WNW 6.9 mph 17.3 mph N/A   Clear
2:55 PM 68.0 °F - 45.0 °F 43% 29.83 in 10.0 mi NW 10.4 mph 17.3 mph N/A   Clear
3:55 PM 68.0 °F - 46.0 °F 45% 29.83 in 10.0 mi NW 10.4 mph - N/A   Clear
4:55 PM 66.9 °F - 46.9 °F 49% 29.83 in 10.0 mi NW 8.1 mph - N/A   Clear
5:55 PM 64.9 °F - 46.9 °F 52% 29.85 in 10.0 mi NW 8.1 mph - N/A   Clear
6:55 PM 61.0 °F - 46.9 °F 60% 29.86 in 10.0 mi West 3.5 mph - N/A   Clear
7:55 PM 57.0 °F - 46.9 °F 69% 29.89 in 10.0 mi WNW 4.6 mph - N/A   Clear
8:55 PM 53.1 °F - 48.0 °F 83% 29.90 in 10.0 mi SW 6.9 mph - N/A   Clear
9:55 PM 54.0 °F - 50.0 °F 86% 29.92 in 10.0 mi West 5.8 mph - N/A   Clear
10:55 PM 53.1 °F - 48.9 °F 86% 29.94 in 10.0 mi Calm Calm - N/A   Clear
11:55 PM 55.9 °F - 46.9 °F 72% 29.96 in 10.0 mi NE 3.5 mph - N/A   Clear